星链-1869 (STARLINK-1869 )

导读 | 星芒AI

STARLINK-1869 是 SpaceX Starlink 项目中的一颗低轨通信卫星,属于第 18 批发射的 Starlink 卫星群。该卫星于 2021 年 11 月 18 日由猎鹰 9 号火箭从卡纳维拉尔角发射升空,部署在约 540 公里的轨道高度,用于提供全球宽带互联网服务。STARLINK-1869 采用先进的相控阵天线和激光通信技术,旨在提升网络速度和连接稳定性,支持偏远地区的高速上网需求。该卫星运行状态良好,是 Starlink 卫星互联网系统的重要组成部分。

基本信息
目录编号:
47155
目录名称:
STARLINK-1869
国际标识:
2020-088AK
轨道中心:
EARTH
卫星名称:
星链-1869
卫星全名:
星链-1869 (STARLINK-1869 )
卫星状态:
已陨落 最后检测时间 2025-03-11
发射日期:
2020-11-25 UTC
国别 :
美国 (US)
星等 :
--
轨道信息
数据来源 国际轨道数据
星历时间: 2025-03-11T21:00:59+0800
轨道信息已过期279天
半长轴: 6568.199km
偏心率: 0.0001486
轨道倾角: 53.014°
近地点辐角 43.346°
升交点赤经 81.194°
平近点角 50.171°
近地点: 189.087km
远地点: 191.041km
周期: 88.294分钟
每日圈数: 16.309226
详细信息
固有亮度:
5
最大亮度:
2.5
卫星平台:
Starlink V1.0
覆盖范围:
全球
运营商:
太空探索技术公司
运营商所在国:
美国
制造商(研发单位):
太空探索技术公司
制造商所在国:
美国
使用方式:
暂无
卫星简介
星链(Starlink)计划是由太空探索技术公司(SpaceX)提出的一个巨型低轨卫星互联网星座项目,计划在2019年至2024年间在太空搭建由约1.2万颗卫星组成的“星链”网络,其中1584颗将部署在地球上空550千米处的近地轨道,并从2020年开始工作。该卫星仍在工作。